Helicity
200 198 171 182 211 221 151 136 122 122 130 114 114 168 171 141 39 22 35 28 44 18 -7 14 27 29 30 32 32 30 28 27 24 20 17 15 13 9 11 9 4 -6 33 26 13 9 7 16 29
193 233 229 217 243 228 136 158 121 91 105 79 260 262 221 152 101 48 45 35 35 28 14 10 26 26 27 26 26 23 26 25 25 25 19 14 11 10 12 9 7 5 19 44 36 25 19 25 29
202 246 278 255 247 181 129 112 113 132 97 156 183 227 202 162 138 63 29 55 50 42 26 -4 23 25 23 22 22 21 19 16 16 19 18 16 15 13 14 15 16 17 26 45 41 33 23 21 29
258 293 296 246 222 168 129 135 146 206 179 159 146 246 161 136 100 45 51 74 78 59 52 28 28 24 25 25 25 24 19 14 13 13 11 13 16 16 17 20 23 21 20 18 30 32 27 19 14
298 318 310 241 191 166 96 139 138 157 151 169 169 141 176 118 109 79 76 80 98 82 71 42 43 44 45 48 48 44 37 31 24 21 17 12 6 11 20 20 27 26 22 22 22 26 28 24 16
349 314 308 224 185 124 107 138 159 160 159 149 174 183 105 100 100 104 106 117 109 94 80 77 75 69 70 64 63 65 61 53 45 38 32 22 25 25 19 18 26 26 25 29 27 22 22 30 26
266 356 228 154 168 157 168 190 160 159 147 156 110 143 113 78 98 111 130 134 126 103 93 91 88 88 90 82 79 79 57 47 43 42 41 37 26 21 27 34 38 31 18 25 34 33 28 31 33
223 254 187 169 190 192 213 205 187 187 159 141 135 42 52 32 96 138 141 131 126 112 105 103 102 101 94 84 91 80 77 65 63 73 74 61 46 46 44 46 52 54 42 39 36 38 34 36 43
233 235 201 179 185 213 207 201 186 149 136 123 130 80 96 125 125 137 128 114 106 99 100 97 98 94 90 82 87 92 92 104 104 93 83 65 61 66 75 79 84 88 98 99 85 67 45 45 51
222 187 176 184 217 182 162 161 112 107 106 106 98 122 141 130 92 96 87 86 82 83 91 94 93 92 89 81 80 78 81 82 80 78 75 66 68 72 77 81 87 95 95 99 104 105 103 94 89
202 150 200 197 168 166 139 133 111 88 77 43 26 34 82 84 69 67 64 60 70 84 88 86 89 89 88 81 73 67 64 64 62 63 62 66 69 73 77 71 68 65 74 65 77 80 83 109 120
163 176 173 205 216 130 139 117 119 115 54 70 34 43 68 59 49 46 61 62 78 91 89 84 83 81 84 80 74 65 61 58 59 63 74 69 65 74 77 80 87 88 91 96 97 90 99 112 124
163 164 168 223 214 171 121 139 86 90 99 76 81 74 49 48 35 40 48 61 90 97 87 76 81 82 81 82 68 62 64 66 68 74 82 79 79 73 73 78 88 96 96 99 102 109 108 112 117
164 161 188 236 237 193 106 103 97 80 83 76 59 26 33 29 35 55 68 76 88 90 83 82 77 77 83 71 61 58 63 65 76 81 79 85 74 66 66 69 74 81 82 84 92 96 111 121 122
189 198 197 237 217 161 151 99 58 48 62 53 34 34 26 23 50 44 61 79 94 90 87 84 70 71 65 61 59 63 63 78 82 73 70 70 63 64 62 59 65 73 80 82 88 100 108 107 117
210 209 181 182 157 127 108 128 83 47 51 34 38 41 32 28 33 38 62 81 94 106 97 85 78 74 72 74 75 79 92 85 77 69 63 62 60 70 72 79 86 85 84 91 95 91 93 101 101
263 189 150 132 101 91 82 113 87 48 55 33 35 30 31 25 31 35 70 77 102 102 110 93 77 79 82 87 93 102 98 83 62 50 46 49 57 64 66 84 90 78 81 101 99 96 77 82 91
148 135 141 99 96 70 67 69 77 55 36 22 21 15 23 28 19 59 71 90 106 119 112 97 89 92 93 100 102 89 74 66 50 44 40 51 58 59 75 92 100 81 89 104 105 85 87 70 63
46 77 82 87 71 68 54 49 49 38 32 18 3 15 38 50 68 61 72 111 142 138 124 112 104 88 100 107 93 81 67 59 49 45 48 58 64 69 69 79 83 90 94 100 94 65 69 83 63
103 83 94 75 66 41 55 62 51 33 34 30 24 19 29 66 68 71 76 118 155 156 127 114 100 92 95 89 75 67 60 49 55 56 59 59 64 58 50 60 71 100 96 91 84 59 51 56 56
178 81 82 63 72 38 41 49 80 93 111 102 89 67 69 52 50 69 88 102 159 173 143 113 86 79 74 71 75 67 61 63 69 75 76 67 57 42 30 47 60 86 81 72 63 56 49 50 55
114 111 79 74 55 42 59 59 74 115 130 131 151 102 95 105 107 108 103 132 156 132 112 84 75 59 56 63 73 63 63 70 85 99 96 71 51 38 20 27 45 44 45 52 51 52 50 46 53
51 82 76 61 42 34 86 55 41 132 130 146 157 127 102 110 112 108 96 82 75 76 73 65 52 43 46 64 62 60 58 90 96 99 86 74 58 35 27 23 19 28 34 47 44 44 43 43 35
64 92 109 87 62 31 78 75 59 105 118 130 108 93 77 77 91 79 68 61 51 50 47 42 38 30 45 60 70 80 83 101 104 105 103 92 72 42 25 13 13 17 33 36 34 20 13 13 30
100 88 56 60 91 23 96 110 67 87 83 88 105 94 81 85 76 57 44 50 46 41 36 36 44 37 61 73 91 116 129 128 131 132 120 97 86 69 16 22 23 24 38 15 -17 -6 14 16 37
109 89 47 20 50 65 118 87 91 77 88 75 89 72 77 76 64 49 39 43 39 36 38 46 62 70 90 93 114 141 136 156 152 151 142 114 88 37 62 39 42 28 15 -3 11 14 40 46 55
98 110 80 85 78 106 105 111 92 101 108 133 126 93 77 67 58 78 68 55 44 40 44 53 58 60 80 107 111 103 125 140 140 150 145 122 98 73 70 61 54 36 29 12 23 43 49 55 56
92 68 132 151 96 95 117 106 87 120 149 175 158 110 109 100 123 145 115 91 69 47 38 44 50 54 79 69 68 68 80 104 118 128 135 142 118 100 82 73 73 58 28 5 25 39 47 50 56
108 120 151 137 152 115 105 77 69 117 134 129 94 112 90 44 39 48 49 34 27 18 18 32 43 45 39 21 33 36 53 79 96 121 135 132 111 99 93 87 82 80 41 10 44 52 54 63 66
97 107 141 160 121 158 152 118 132 111 131 138 157 135 74 42 19 44 42 50 72 74 83 75 56 38 27 32 33 25 22 47 80 104 117 131 127 127 116 105 92 86 81 44 69 72 70 70 65
Wind_Speed
47 42 37 36 47 50 60 49 42 39 34 31 23 19 11 25 24 25 18 21 26 31 31 30 30 29 29 29 30 31 32 33 34 34 34 35 35 36 35 37 39 43 25 30 35 37 38 35 34
40 39 37 41 56 68 63 48 49 36 19 10 17 18 21 21 22 17 17 21 24 28 29 30 29 29 28 28 28 28 29 30 31 32 32 33 33 34 35 37 38 41 28 26 29 33 36 37 32
37 37 44 48 57 68 60 48 45 30 7 23 22 19 19 14 17 16 16 18 23 25 27 28 29 28 27 27 26 26 26 25 26 27 29 30 32 33 35 38 40 42 35 26 28 31 35 35 32
40 40 42 60 64 61 51 43 31 18 27 25 9 17 20 29 25 17 11 18 20 20 23 26 26 26 26 27 26 27 26 25 24 23 23 24 28 31 35 38 40 40 39 34 31 33 36 37 36
40 43 59 64 64 57 55 46 25 21 25 21 22 20 21 25 19 10 11 15 19 20 22 25 27 28 29 30 31 31 31 32 30 28 26 24 26 29 34 35 38 40 39 38 33 34 35 38 39
49 46 61 66 59 53 48 34 33 29 23 19 20 18 22 25 11 8 11 13 16 20 23 26 29 31 32 33 34 35 36 37 38 38 38 37 38 40 40 41 42 40 37 37 36 35 35 35 36
53 53 58 56 50 47 40 30 27 23 21 24 17 27 23 20 9 6 11 14 17 21 25 28 31 33 35 37 38 40 41 40 41 43 45 46 44 45 45 46 48 48 43 40 36 35 34 33 34
48 50 51 54 48 44 33 29 22 25 26 21 31 30 26 16 6 6 11 15 18 22 26 29 33 36 38 40 40 42 45 44 43 48 50 50 50 48 49 50 53 56 54 50 41 35 33 31 28
45 54 56 52 45 37 30 28 28 26 19 24 33 29 31 8 1 5 11 16 19 24 28 32 35 37 38 39 43 45 47 47 47 48 50 51 51 50 50 51 54 56 56 58 58 58 54 42 36
52 55 52 45 43 37 30 28 21 21 20 24 25 26 5 4 1 4 8 12 18 22 28 32 35 37 39 41 43 45 46 47 49 50 52 52 52 53 54 56 59 61 62 63 62 62 62 60 52
51 52 45 44 43 39 29 25 27 12 21 27 20 11 4 3 5 6 11 13 15 21 26 31 34 38 40 42 44 46 47 49 51 53 55 55 56 58 59 61 63 64 64 64 65 65 63 63 60
50 41 41 40 40 33 29 27 24 30 29 33 21 6 8 4 2 5 9 14 16 20 24 29 33 36 38 41 44 46 49 51 53 55 58 60 63 64 64 64 64 65 65 67 66 67 67 67 65
46 41 33 35 31 30 30 29 29 32 35 28 15 17 13 14 11 12 17 16 17 21 23 27 32 34 38 42 44 48 51 53 55 58 60 62 63 65 66 66 65 65 66 68 71 71 70 69 68
43 33 32 30 30 31 33 34 34 38 34 22 17 19 21 11 11 24 21 19 18 22 24 28 31 33 37 41 44 48 51 53 56 58 60 61 63 65 64 64 65 66 67 68 69 70 70 69 67
38 38 31 29 33 33 36 39 37 37 37 31 29 28 25 22 28 23 23 21 18 23 26 26 28 31 38 43 47 49 52 53 55 58 60 61 63 63 64 65 66 66 66 67 66 66 64 63 62
42 40 44 37 34 35 35 41 41 41 39 42 40 40 39 40 37 35 30 20 20 24 23 25 28 31 38 44 48 51 51 54 58 60 59 61 61 63 65 65 64 66 65 64 64 63 62 61 60
45 47 43 40 34 37 37 39 40 41 42 48 48 47 48 49 46 40 26 19 20 18 19 24 25 32 40 46 49 49 51 54 56 57 58 59 60 62 64 62 61 64 63 62 60 60 57 58 58
58 47 43 40 40 39 41 50 46 43 47 53 55 54 53 52 49 41 30 23 18 17 16 19 25 34 42 46 47 48 49 52 53 58 58 60 60 61 62 58 57 61 61 60 61 59 57 54 53
47 44 43 42 39 43 49 56 57 54 54 60 63 63 62 60 57 47 35 19 14 14 16 19 26 37 43 43 45 46 49 52 53 56 59 59 59 59 59 57 58 60 60 59 58 55 55 52 53
45 45 44 42 41 43 48 60 59 57 57 60 66 69 67 57 50 43 32 18 14 16 18 23 30 37 35 37 39 41 45 48 52 55 59 57 57 60 57 57 60 59 56 60 56 54 50 47 52
37 41 42 43 42 40 50 55 48 44 44 46 48 50 47 47 45 39 31 22 19 20 21 26 33 32 32 33 36 41 46 49 53 54 57 57 58 58 58 58 58 56 52 54 53 49 49 48 46
39 34 33 39 44 50 43 52 46 45 44 42 45 43 42 41 40 38 33 27 22 22 27 30 31 28 29 30 36 43 51 56 51 53 54 58 56 57 58 57 56 54 50 46 46 42 46 45 47
34 30 32 36 41 47 48 52 50 46 44 45 45 44 41 39 39 37 34 27 24 26 28 28 27 26 29 31 36 43 49 49 50 51 53 54 54 55 57 56 56 52 49 40 42 41 41 37 39
22 28 32 36 42 55 52 51 54 47 43 46 45 45 41 37 39 38 36 35 33 33 32 31 33 33 32 36 38 41 46 48 51 49 48 49 52 55 55 54 53 51 45 40 34 33 36 34 31
30 35 48 53 54 58 47 53 58 44 45 44 51 46 41 38 40 41 39 37 35 33 31 31 33 36 35 41 42 42 43 44 42 42 41 36 37 48 58 55 51 50 42 46 48 49 37 41 37
36 39 47 56 56 57 48 57 52 35 40 39 44 41 40 41 41 41 38 34 32 32 33 35 39 45 48 49 48 47 45 40 37 37 28 20 14 9 43 52 43 46 51 51 50 50 44 45 36
38 43 34 46 51 61 57 59 56 42 37 42 42 41 43 43 40 41 39 36 39 41 44 47 50 53 55 55 53 56 50 41 32 32 27 18 16 20 35 40 37 42 48 52 50 46 44 41 38
34 26 44 45 58 63 61 62 56 38 37 39 41 43 43 42 41 42 44 46 47 49 51 52 53 54 56 60 63 62 57 44 36 35 25 20 21 24 29 34 39 45 52 55 49 41 40 43 38
35 40 40 41 47 58 65 58 36 34 34 35 39 41 45 47 48 48 50 49 47 46 47 50 51 54 60 64 64 63 60 48 41 37 33 24 21 19 18 22 28 40 55 59 52 48 47 46 44
38 39 37 50 54 52 57 70 39 35 32 33 38 44 49 53 52 50 50 46 48 51 53 55 56 60 62 64 65 64 61 53 43 41 38 35 27 26 24 26 22 23 48 58 49 46 45 47 51
Wind_Direction
259 264 270 266 259 265 260 268 278 282 285 302 307 294 344 340 343 333 18 49 69 86 86 84 84 78 70 63 57 51 42 37 34 34 33 30 28 20 20 16 7 354 54 38 11 358 353 1 5
254 257 260 258 255 252 259 268 270 282 293 344 319 309 310 328 343 6 18 48 65 73 80 80 80 77 70 64 56 51 43 35 29 27 24 22 20 16 9 6 5 357 27 33 30 23 11 359 11
245 251 246 251 253 250 260 266 271 275 271 292 296 313 312 342 350 331 327 50 62 60 70 77 74 71 73 73 66 58 53 51 43 34 26 20 15 9 3 356 352 345 358 19 13 8 3 2 3
236 244 254 247 248 253 262 273 268 254 276 286 302 291 307 287 298 312 11 52 53 37 45 59 45 41 44 40 42 37 39 40 38 36 31 23 14 5 358 351 346 344 342 346 350 348 346 345 346
234 241 241 245 246 254 255 266 254 257 269 268 279 282 286 283 294 10 35 39 48 23 18 21 28 25 24 19 18 19 17 13 14 16 18 16 10 2 354 350 345 342 341 341 342 341 339 337 335
231 238 238 240 244 250 255 258 256 262 270 273 277 274 283 268 301 344 34 23 13 18 7 9 10 11 7 7 6 4 0 359 357 356 355 353 350 346 345 341 339 338 338 337 337 335 334 335 334
231 233 238 241 241 246 250 253 253 256 266 278 270 267 271 265 283 15 27 17 10 8 7 4 1 -0 357 356 354 352 351 353 351 347 345 342 342 340 338 337 333 329 331 332 333 332 331 330 329
232 235 236 238 236 245 245 253 259 262 270 282 261 263 260 253 263 327 353 1 3 359 358 359 357 355 353 351 351 348 345 345 346 342 340 338 336 336 334 333 329 326 325 325 328 329 329 329 326
232 231 233 236 235 243 245 248 260 270 272 273 257 256 259 150 197 332 341 338 348 350 351 354 354 353 354 353 349 346 344 343 342 341 339 337 338 337 335 333 330 328 326 323 321 318 319 323 323
226 230 232 240 240 241 244 247 254 266 268 269 262 262 227 169 233 329 349 1 359 359 355 355 354 354 354 351 348 345 344 344 342 340 339 338 336 333 330 326 323 321 319 318 318 317 317 317 319
226 230 236 241 241 242 243 248 261 255 265 256 255 252 199 224 287 330 337 0 16 4 359 356 355 353 351 350 348 345 344 341 339 337 336 334 331 327 325 322 320 318 318 317 317 316 317 316 316
223 233 238 242 240 240 241 253 258 258 261 253 254 242 257 276 18 23 5 350 1 358 357 356 355 354 353 350 347 345 342 341 339 336 333 330 326 323 322 321 320 319 319 316 316 315 314 313 313
221 228 237 240 237 242 244 251 255 252 254 258 254 263 274 292 312 331 330 343 352 351 353 353 353 353 351 349 347 344 343 340 337 334 331 328 326 323 321 321 322 321 320 318 314 313 312 311 310
221 222 231 239 240 243 244 253 252 251 255 259 260 273 284 306 314 307 320 330 339 343 347 349 349 351 350 348 345 343 341 339 337 334 331 330 327 326 327 326 325 324 323 321 318 315 313 311 311
218 219 229 240 244 244 250 252 254 254 250 258 266 278 292 301 300 309 317 323 334 338 341 345 349 352 347 343 342 341 340 339 337 334 331 329 329 329 329 328 327 327 327 326 325 322 320 317 315
216 223 224 238 245 251 249 252 251 255 254 259 269 277 285 291 298 305 314 325 330 333 338 345 347 346 344 341 340 338 339 338 335 333 333 333 333 332 330 328 329 329 328 328 327 327 325 323 321
221 217 227 233 249 253 251 256 258 260 259 262 269 279 286 291 298 303 314 318 323 330 338 342 347 343 342 339 337 338 338 338 338 339 338 337 337 336 333 331 332 332 330 330 330 330 331 330 328
217 221 230 236 247 254 255 253 262 264 264 266 272 282 289 294 299 307 313 318 324 331 341 346 345 341 340 337 337 338 340 341 343 341 341 340 339 338 337 336 335 336 334 333 331 330 330 332 333
227 229 234 243 255 258 259 259 261 266 270 269 273 280 287 293 300 308 312 317 320 326 332 338 340 337 335 336 338 340 340 342 344 344 343 342 342 342 341 340 337 335 335 334 334 332 331 335 336
229 232 240 249 258 263 267 263 268 272 275 278 280 283 288 297 303 310 316 311 300 310 321 330 334 335 337 340 343 345 344 344 343 344 344 346 348 345 343 340 335 333 335 331 334 338 338 338 335
231 236 242 251 260 270 275 271 278 285 290 297 301 302 306 307 308 312 316 314 308 308 316 324 329 333 337 342 345 344 343 342 341 344 346 346 345 347 345 341 336 333 339 336 337 341 341 338 340
233 251 256 260 261 263 282 273 280 286 290 301 309 311 314 321 325 327 327 321 313 313 319 324 329 333 336 341 341 339 339 337 340 342 344 343 344 342 342 343 342 337 341 344 340 349 342 343 340
246 261 267 270 270 272 277 277 281 289 291 299 310 317 319 328 331 334 336 335 328 324 322 325 327 329 333 335 336 336 337 339 340 339 341 344 343 340 336 339 341 345 344 350 343 344 346 355 353
265 271 280 283 279 270 277 279 282 286 294 301 312 317 323 331 332 332 330 328 325 324 323 325 323 323 327 329 330 331 334 336 338 340 342 344 342 335 330 332 342 349 353 356 2 1 354 357 1
276 270 264 268 270 273 287 281 280 297 301 309 313 319 324 329 328 327 326 326 327 327 327 326 324 322 324 323 326 328 330 332 336 340 343 348 353 342 317 324 337 346 1 334 289 320 355 344 352
275 276 269 271 274 279 289 283 291 307 316 321 322 323 324 324 326 328 330 331 331 330 328 327 324 320 320 322 323 325 326 329 333 337 341 344 348 4 342 329 341 343 333 316 320 323 338 336 351
281 277 295 284 288 284 286 291 299 307 313 320 323 326 324 324 325 330 333 333 329 326 324 322 321 320 320 321 323 321 324 328 330 334 338 336 343 350 344 340 344 340 329 315 321 334 338 343 347
296 304 285 289 285 286 290 292 292 308 313 319 322 327 329 329 330 330 329 328 327 325 323 322 323 322 324 320 317 318 322 330 332 334 334 332 337 342 342 341 337 331 317 308 322 337 338 337 342
291 290 295 298 293 292 293 297 314 313 316 319 323 325 326 326 325 325 324 325 329 332 332 332 331 329 320 314 319 320 322 331 335 334 334 332 331 333 334 339 339 330 312 303 316 325 326 329 332
294 292 291 289 291 295 297 295 313 314 315 321 324 324 326 326 323 322 322 324 325 327 328 327 324 316 312 319 323 323 323 333 338 338 337 336 330 329 325 327 329 331 318 308 317 322 324 324 321